Simultaneous Nadir Overpasses (SNOs) Predictions

Prediction of SNOs between AQUA and METOP-A Satellite Orbit:

Table of predicted SNOs for the next 14.0 days since TLE Epoch: 9/13/2019
Index Date (AQUA) Time (AQUA) Lat,Lon (AQUA) SZA (AQUA ) Date (METOP-A) Time (METOP-A) Lat,Lon (METOP-A) SZA (METOP-A ) Distance(km) Time Diff (sec)
1 09/14/2019 12:01:03 -75.45, 170.04 107.87 09/14/2019 12:00:44 -75.45, 170.06 107.87 0.51 19
2 09/14/2019 12:50:32 75.51, -22.48 72.21 09/14/2019 12:51:23 75.48, -22.51 72.18 2.47 51
3 09/17/2019 06:45:45 74.99, 70.08 72.69 09/17/2019 06:44:38 74.90, 67.52 72.72 74.70 67
4 09/17/2019 07:35:20 -75.47,-123.59 106.78 09/17/2019 07:35:08 -75.48,-123.51 106.77 2.26 12
5 09/17/2019 08:24:49 75.53, 43.87 73.31 09/17/2019 08:25:47 75.51, 43.92 73.27 3.31 58
6 09/20/2019 02:20:07 75.27, 135.75 74.08 09/20/2019 02:18:56 75.21, 134.75 74.07 29.12 71
7 09/20/2019 03:09:36 -75.45, -57.09 105.72 09/20/2019 03:09:33 -75.45, -57.23 105.71 3.73 3
8 09/20/2019 03:59:05 75.52, 110.35 74.37 09/20/2019 04:00:11 75.53, 110.35 74.37 1.36 66
9 09/22/2019 21:54:25 75.41,-158.20 75.31 09/22/2019 21:53:15 75.42,-158.27 75.34 2.56 70
10 09/22/2019 22:43:52 -75.48, 9.25 104.61 09/22/2019 22:43:56 -75.47, 9.20 104.61 1.73 4
11 09/22/2019 23:33:21 75.56, 176.67 75.50 09/22/2019 23:34:34 75.55, 176.76 75.48 2.63 73
12 09/25/2019 17:28:42 75.45, -91.89 76.45 09/25/2019 17:27:39 75.44, -91.86 76.44 1.35 63
13 09/25/2019 18:18:09 -75.51, 75.59 103.48 09/25/2019 18:18:20 -75.49, 75.61 103.50 2.39 11




NCC Satellite Simultaneous Nadir Overpasses (SNOs) Prediction Service
